Wind_Speed
6 6 6 6 5 4 4 4 4 3 2 2 1 1 1 1 2 2 2 2 1 2 2 3 4 4 5 5 4 5 6 6 6 6 6 6 5 5 5 4 4 4 4
8 7 7 6 6 5 4 4 3 2 2 2 1 1 1 1 2 2 2 2 2 2 2 3 3 4 4 5 5 5 6 6 6 7 7 7 7 6 6 6 5 5 4
9 8 8 7 6 5 4 3 2 1 1 1 1 0 0 1 1 2 2 2 2 2 2 2 3 3 4 5 5 5 6 6 7 7 7 7 7 7 7 7 7 6 6
11 10 9 8 7 6 5 4 3 2 2 2 1 1 0 1 2 2 2 2 2 2 2 2 2 3 3 4 5 4 5 6 7 7 8 8 7 7 7 8 8 7 7
13 11 10 9 8 7 6 5 4 3 3 3 2 1 1 1 1 2 3 2 1 1 1 2 3 3 4 4 4 5 5 6 6 7 8 8 8 8 8 8 8 8 8
14 12 11 10 9 8 7 6 6 5 5 4 4 2 2 1 1 1 2 2 1 1 1 1 2 2 3 4 4 5 5 5 6 7 7 8 8 8 8 9 9 9 9
15 13 13 12 10 9 8 7 7 7 6 6 5 4 3 3 2 1 1 1 1 1 1 1 1 1 2 3 4 5 5 6 6 6 6 7 8 8 9 9 10 10 10
17 15 15 14 12 11 10 9 8 8 8 7 6 5 4 3 3 1 1 0 0 1 1 2 1 2 2 3 3 4 5 5 5 6 6 7 7 8 8 9 9 10 11
17 15 16 16 14 13 11 10 9 9 9 8 7 6 5 4 4 3 2 2 1 1 1 1 2 2 2 3 3 3 3 4 5 5 6 6 7 8 8 9 10 10 11
18 16 16 16 15 14 12 11 10 10 10 9 8 7 7 6 5 5 4 4 3 3 3 3 4 4 4 3 4 4 4 4 5 5 6 7 7 8 9 10 10 11 12
18 17 16 16 16 15 13 12 11 11 10 10 9 9 8 7 7 7 6 6 6 6 5 5 5 5 5 5 5 5 5 6 6 7 7 8 8 9 9 10 11 12 13
18 17 17 16 17 15 14 14 13 12 12 11 11 10 10 9 8 8 8 8 8 8 8 8 8 8 8 8 8 8 8 8 8 9 9 10 10 11 11 12 12 13 13
19 18 17 17 17 16 16 15 14 14 14 13 12 12 12 11 11 11 11 11 11 11 11 11 11 11 11 11 11 11 11 11 11 12 12 12 13 13 14 14 15 15 15
21 20 19 18 18 18 17 17 16 16 15 15 14 14 13 13 13 13 13 13 13 14 14 14 14 14 14 14 14 14 14 14 14 15 15 15 16 16 16 17 17 18 18
21 21 20 19 19 18 18 17 17 17 17 17 17 16 16 16 16 16 16 16 16 16 17 17 17 17 17 17 17 17 17 17 17 18 18 19 19 19 20 20 20 21 21
22 22 21 21 20 20 19 18 18 18 18 18 19 18 18 18 18 18 18 18 18 18 19 20 20 20 20 20 20 21 21 21 21 22 22 22 22 23 23 24 24 24 25
22 22 22 22 22 21 20 20 20 20 20 20 20 20 20 20 20 20 20 20 21 21 21 22 22 22 22 23 23 24 24 25 25 25 25 26 26 27 27 28 28 28 29
22 22 22 23 23 22 22 22 22 22 22 22 22 22 22 22 22 22 22 22 23 23 24 25 25 25 26 26 26 27 27 28 29 29 29 30 30 31 31 31 32 32 33
21 22 22 23 23 23 23 23 23 23 23 24 23 23 23 24 24 24 24 25 25 25 26 26 27 28 28 29 29 30 30 31 32 32 33 34 34 34 35 35 36 36 36
19 20 21 22 23 23 23 22 22 22 22 23 23 24 24 25 25 26 26 27 27 27 27 28 29 30 30 31 31 32 32 33 34 35 36 37 37 38 39 39 39 39 39
19 19 21 22 22 23 22 22 23 23 23 23 24 24 25 26 26 27 28 29 29 29 30 30 30 31 33 33 34 34 35 36 37 38 39 40 40 41 42 42 43 43 43
18 19 21 22 21 21 21 22 23 24 24 24 25 26 26 27 28 29 31 31 31 31 32 32 33 34 35 36 37 37 38 39 40 42 43 43 44 44 44 45 46 46 46
18 18 20 20 20 20 20 22 23 24 25 26 27 28 28 29 31 31 32 32 32 33 34 35 36 36 38 39 39 40 41 41 42 43 45 45 46 47 48 48 48 49 49
18 19 19 20 21 21 22 24 26 27 28 28 29 30 31 32 33 33 33 33 34 35 36 37 38 39 41 42 43 43 44 44 45 46 47 47 48 49 50 51 51 52 52
18 18 19 20 21 22 23 25 27 28 29 29 30 30 31 32 33 34 35 36 37 38 39 40 41 42 43 44 45 46 47 48 48 49 50 51 51 52 53 54 55 55 56
19 20 21 22 23 24 25 27 27 28 29 30 31 31 32 33 35 35 37 38 40 40 41 42 43 44 45 46 47 48 49 51 52 52 53 54 55 56 56 56 57 58 59
Wind_Direction
239 249 262 268 273 284 298 305 310 311 305 294 303 306 329 349 353 348 337 315 293 273 264 257 242 223 221 221 218 216 216 217 220 221 221 223 227 227 228 233 240 238 240
234 242 253 263 265 272 284 290 296 290 292 289 285 294 318 350 349 345 336 322 302 278 270 263 241 228 226 225 226 222 224 228 228 228 230 233 236 238 239 241 241 244 245
230 237 249 257 257 261 268 272 279 254 263 264 245 240 299 4 350 337 336 327 312 288 269 263 249 242 235 233 233 231 233 235 238 235 234 236 241 243 244 245 247 251 252
225 233 242 250 253 251 253 252 250 232 228 238 235 218 271 24 7 344 341 341 327 302 273 265 259 255 247 239 235 236 238 240 243 242 239 240 242 245 247 248 248 250 256
224 231 237 242 245 247 246 244 238 229 222 224 230 226 237 360 3 350 344 344 339 326 289 270 267 263 258 249 243 245 251 250 249 250 246 242 244 249 250 248 248 253 259
225 230 233 234 236 241 240 240 231 226 222 222 229 230 238 268 301 340 357 356 341 332 314 291 275 262 263 256 254 251 254 256 256 257 253 247 248 251 252 253 253 259 263
227 231 230 230 231 234 232 233 231 227 225 225 227 229 238 249 258 284 348 3 9 355 346 330 314 302 292 273 264 261 258 255 257 258 253 255 253 251 253 257 259 262 266
226 229 228 227 227 231 231 232 233 230 228 227 228 230 232 233 232 225 237 181 54 14 4 1 357 344 332 308 283 272 261 260 261 260 263 266 263 259 258 260 263 267 269
223 226 228 228 228 230 229 230 233 231 228 226 226 227 227 228 231 238 242 238 246 263 286 328 327 325 325 322 319 300 274 266 267 266 264 267 270 267 267 266 267 270 271
221 227 228 225 225 227 228 230 232 231 227 224 224 226 227 230 237 243 250 250 251 256 270 289 292 293 296 303 309 305 292 286 280 276 272 271 271 271 269 271 273 274 274
223 225 225 223 224 226 228 230 231 230 226 223 224 228 232 237 241 246 251 255 259 262 270 279 280 283 284 288 292 295 295 291 285 281 279 278 277 276 277 277 277 277 277
221 222 224 225 226 226 228 230 233 233 230 227 227 232 238 242 247 253 257 261 264 268 273 276 277 276 280 283 283 284 285 286 285 284 283 281 279 278 280 281 280 278 277
222 222 223 225 225 225 227 230 234 235 232 232 234 239 242 247 252 256 260 264 267 270 273 276 277 276 277 279 280 282 283 282 282 282 282 281 280 280 280 281 281 280 280
222 223 225 226 227 227 230 234 235 237 236 235 238 243 246 250 254 257 260 264 267 269 272 275 276 276 276 277 279 282 281 280 279 279 279 279 280 280 280 280 280 281 281
222 224 227 229 229 229 233 234 236 239 239 239 242 246 250 253 256 258 260 264 267 269 272 274 276 276 275 275 276 278 279 280 279 278 278 279 278 278 278 279 280 280 280
225 228 230 229 230 232 236 238 240 240 241 242 243 246 251 254 257 259 261 264 267 270 272 274 275 277 277 276 275 276 277 278 278 278 279 279 278 278 278 279 279 279 280
227 230 231 231 232 234 236 241 243 244 245 245 245 249 253 256 258 260 262 264 266 269 271 272 273 274 274 276 276 277 277 277 277 278 278 278 278 279 279 279 279 279 279
230 233 234 234 235 236 238 243 246 248 250 250 250 253 256 259 260 261 262 265 267 269 271 273 274 274 274 275 276 277 277 277 277 277 278 278 278 278 277 277 278 278 278
232 234 236 236 238 241 243 247 248 249 250 252 255 258 259 261 262 262 263 266 269 270 272 273 275 276 276 276 275 276 277 277 277 278 278 278 278 278 278 277 277 277 277
235 238 240 242 245 246 247 248 249 250 252 253 256 260 261 262 263 264 266 268 269 271 272 273 274 275 276 276 276 277 278 278 278 278 278 278 278 279 278 277 278 278 278
239 242 244 245 247 248 248 248 250 252 257 260 262 263 262 264 266 266 268 270 271 272 272 273 274 275 276 277 277 277 277 277 277 277 277 278 279 279 278 278 278 278 278
242 244 247 247 249 250 251 252 255 259 262 263 265 266 267 266 268 269 270 272 272 273 273 274 275 275 277 278 279 279 279 278 278 278 277 278 278 279 279 279 279 279 278
246 249 250 250 252 253 254 255 258 261 262 265 267 268 269 270 270 270 271 273 274 274 274 275 276 277 278 279 280 280 280 280 279 279 279 279 279 279 278 279 279 279 279
249 251 253 255 255 255 255 257 259 261 263 266 268 270 271 271 271 271 273 274 275 276 276 277 278 279 279 280 280 281 281 281 281 281 280 280 279 279 279 280 279 279 278
251 252 255 258 258 258 259 263 265 265 266 268 270 271 273 274 273 272 273 276 278 278 279 280 280 281 281 281 281 281 281 282 282 282 281 281 280 280 280 280 279 279 278
252 254 257 259 261 262 264 266 268 269 269 270 272 273 274 275 275 275 276 277 279 280 280 281 282 282 282 283 283 283 283 283 283 283 282 282 281 281 280 280 280 279 279
Height
5883 5884 5885 5886 5886 5887 5887 5888 5887 5887 5888 5888 5888 5888 5888 5888 5888 5888 5888 5889 5889 5889 5889 5889 5889 5890 5890 5891 5892 5893 5893 5894 5895 5896 5897 5898 5898 5899 5900 5900 5900 5901 5901
5882 5883 5884 5885 5886 5886 5887 5887 5887 5887 5887 5888 5888 5888 5888 5888 5888 5889 5889 5889 5888 5889 5889 5889 5889 5889 5890 5890 5891 5892 5893 5894 5894 5895 5896 5897 5897 5898 5899 5899 5900 5900 5901
5880 5882 5883 5884 5885 5885 5886 5886 5887 5887 5887 5888 5888 5888 5888 5888 5889 5889 5889 5889 5888 5888 5888 5889 5889 5889 5889 5890 5891 5891 5892 5893 5893 5894 5895 5896 5896 5897 5898 5898 5899 5899 5900
5879 5880 5882 5883 5883 5884 5885 5885 5886 5887 5887 5888 5888 5888 5888 5888 5888 5889 5888 5888 5888 5888 5888 5889 5889 5889 5889 5890 5890 5891 5891 5892 5892 5893 5894 5895 5895 5896 5897 5897 5898 5898 5899
5877 5879 5880 5881 5882 5883 5884 5884 5885 5886 5887 5888 5888 5888 5888 5888 5889 5889 5889 5888 5888 5888 5888 5888 5888 5889 5889 5889 5890 5890 5891 5891 5891 5892 5893 5893 5894 5895 5895 5896 5896 5897 5898
5875 5877 5879 5880 5881 5882 5883 5884 5884 5885 5886 5887 5888 5888 5888 5888 5889 5889 5889 5889 5888 5888 5888 5888 5888 5888 5889 5889 5889 5889 5890 5890 5890 5891 5891 5892 5892 5893 5894 5894 5895 5896 5896
5873 5875 5877 5878 5880 5881 5882 5883 5884 5885 5886 5886 5887 5888 5888 5888 5888 5889 5889 5889 5889 5889 5889 5888 5888 5888 5888 5888 5889 5889 5889 5889 5889 5890 5890 5890 5891 5891 5892 5893 5893 5894 5894
5870 5872 5875 5877 5878 5880 5881 5882 5883 5884 5885 5885 5886 5887 5888 5889 5888 5888 5888 5889 5889 5889 5889 5889 5889 5889 5889 5888 5888 5888 5888 5888 5888 5889 5889 5889 5890 5890 5890 5891 5891 5892 5892
5868 5870 5872 5874 5876 5878 5879 5880 5881 5882 5883 5884 5885 5887 5887 5888 5888 5888 5888 5888 5888 5889 5889 5889 5889 5889 5888 5888 5888 5888 5888 5888 5888 5888 5888 5888 5888 5889 5889 5889 5889 5889 5890
5866 5868 5870 5872 5874 5876 5877 5879 5880 5881 5882 5883 5884 5885 5886 5887 5887 5888 5888 5888 5888 5888 5888 5888 5888 5888 5888 5888 5888 5887 5887 5887 5887 5887 5887 5887 5887 5887 5887 5887 5887 5887 5887
5863 5865 5868 5870 5872 5874 5875 5877 5878 5880 5881 5882 5883 5884 5885 5885 5886 5887 5887 5887 5887 5887 5888 5888 5888 5888 5887 5887 5887 5887 5887 5886 5886 5886 5886 5885 5885 5885 5885 5885 5885 5884 5884
5860 5863 5865 5867 5869 5871 5873 5875 5876 5878 5879 5880 5881 5882 5883 5884 5884 5885 5885 5886 5886 5886 5886 5886 5886 5886 5886 5886 5886 5886 5885 5885 5885 5884 5884 5884 5883 5883 5883 5882 5882 5882 5881
5858 5860 5863 5865 5867 5868 5870 5872 5874 5875 5877 5878 5879 5880 5881 5882 5882 5883 5884 5884 5884 5884 5884 5884 5884 5884 5884 5884 5884 5883 5883 5883 5882 5882 5882 5881 5881 5881 5880 5880 5879 5879 5878
5855 5857 5860 5862 5864 5866 5868 5869 5871 5873 5874 5875 5877 5878 5879 5879 5880 5880 5881 5881 5881 5882 5882 5882 5882 5881 5881 5881 5881 5881 5880 5880 5879 5879 5879 5878 5878 5877 5877 5876 5876 5875 5874
5851 5854 5857 5859 5861 5862 5864 5866 5868 5869 5871 5872 5873 5875 5875 5876 5877 5877 5878 5878 5879 5879 5878 5878 5878 5878 5878 5878 5877 5877 5877 5876 5876 5875 5875 5874 5874 5873 5872 5872 5871 5870 5870
5848 5851 5853 5855 5857 5859 5861 5863 5864 5866 5867 5868 5870 5871 5872 5872 5873 5873 5874 5874 5874 5875 5874 5874 5874 5874 5873 5873 5873 5873 5872 5871 5871 5870 5869 5869 5868 5868 5867 5866 5865 5865 5864
5844 5846 5849 5851 5853 5855 5857 5859 5860 5862 5863 5864 5865 5866 5867 5868 5869 5869 5869 5870 5870 5870 5870 5869 5869 5868 5868 5868 5868 5867 5867 5866 5865 5864 5864 5863 5862 5862 5861 5860 5859 5858 5857
5840 5842 5845 5847 5849 5851 5853 5854 5856 5857 5859 5860 5860 5861 5862 5863 5864 5864 5864 5864 5865 5864 5864 5864 5863 5863 5862 5862 5861 5861 5860 5859 5858 5858 5857 5856 5855 5854 5853 5852 5851 5850 5849
5836 5839 5841 5843 5845 5846 5848 5850 5851 5852 5853 5854 5855 5856 5857 5857 5858 5858 5859 5859 5859 5859 5858 5858 5857 5857 5856 5855 5854 5854 5853 5852 5851 5850 5849 5848 5846 5845 5844 5843 5842 5841 5840
5832 5835 5837 5839 5840 5842 5843 5845 5846 5847 5848 5849 5850 5850 5851 5851 5852 5852 5852 5852 5852 5852 5851 5851 5850 5850 5849 5848 5847 5846 5845 5844 5843 5841 5840 5838 5837 5836 5834 5833 5832 5831 5830
5829 5831 5832 5834 5836 5837 5838 5840 5841 5842 5843 5843 5844 5844 5845 5845 5845 5845 5845 5845 5845 5844 5844 5844 5843 5842 5841 5840 5839 5838 5837 5835 5834 5832 5830 5829 5827 5826 5824 5822 5821 5819 5818
5825 5827 5828 5829 5831 5832 5833 5834 5836 5836 5837 5837 5838 5838 5838 5838 5838 5838 5838 5837 5837 5836 5836 5835 5834 5833 5831 5830 5829 5828 5827 5825 5824 5822 5819 5818 5816 5814 5812 5810 5809 5807 5806
5821 5823 5824 5825 5826 5827 5828 5829 5830 5830 5831 5831 5831 5831 5831 5831 5831 5830 5829 5829 5828 5827 5827 5826 5825 5823 5822 5820 5819 5817 5815 5814 5812 5810 5808 5807 5804 5802 5799 5797 5795 5794 5792
5817 5818 5819 5820 5821 5821 5822 5823 5823 5824 5824 5824 5824 5824 5823 5823 5822 5822 5821 5820 5819 5818 5817 5816 5815 5813 5811 5809 5807 5806 5804 5802 5800 5797 5795 5794 5792 5789 5786 5784 5781 5779 5777
5812 5813 5814 5815 5815 5816 5816 5817 5817 5817 5816 5816 5816 5816 5815 5814 5814 5813 5812 5811 5809 5808 5806 5805 5803 5801 5799 5797 5795 5793 5791 5789 5787 5784 5781 5778 5777 5774 5772 5769 5766 5763 5761
5807 5808 5809 5809 5809 5810 5810 5810 5809 5809 5808 5808 5808 5807 5806 5805 5804 5803 5802 5801 5799 5797 5795 5793 5791 5789 5786 5784 5782 5779 5777 5774 5771 5769 5766 5763 5761 5758 5756 5754 5750 5746 5743